• In Czech Republic
  • List of Countries
  • For 7 days
  • Water Temperature
  • Satellite Maps
  • Weather Map
  • Weather Widgets
  • user-avatar
    Login

    Hourly Weather Glicko

    Today, 18 August, Saturday

    Time Temperature Precipitation Wind Pressure Humidity
    00:00 +19°C° 0.4 mm 3 mps 759 mmHg 92%
    01:00 +19°C° 0.4 mm 3 mps 759 mmHg 93%
    02:00 +18°C° 0 mm 3 mps 759 mmHg 93%
    03:00 +18°C° 0 mm 3 mps 759 mmHg 93%
    04:00 +18°C° 0 mm 3 mps 759 mmHg 93%
    05:00 +18°C° 0 mm 3 mps 760 mmHg 90%
    06:00 +19°C° 0 mm 3 mps 760 mmHg 86%
    07:00 +19°C° 0 mm 3 mps 760 mmHg 83%
    08:00 +20°C° 0 mm 3 mps 761 mmHg 76%
    09:00 +21°C° 0 mm 3 mps 761 mmHg 69%
    10:00 +22°C° 0 mm 3 mps 761 mmHg 62%
    11:00 +24°C° 0 mm 3 mps 761 mmHg 58%
    12:00 +24°C° 0 mm 3 mps 761 mmHg 54%
    13:00 +25°C° 0 mm 3 mps 761 mmHg 50%
    14:00 +25°C° 0 mm 2 mps 761 mmHg 49%
    15:00 +25°C° 0 mm 2 mps 760 mmHg 47%
    16:00 +25°C° 0 mm 2 mps 760 mmHg 46%
    17:00 +24°C° 0 mm 2 mps 760 mmHg 50%
    18:00 +23°C° 0 mm 1 mps 760 mmHg 55%
    19:00 +21°C° 0 mm 1 mps 760 mmHg 59%
    20:00 +21°C° 0 mm 1 mps 760 mmHg 60%
    21:00 +19°C° 0 mm 2 mps 761 mmHg 61%
    22:00 +18°C° 0 mm 2 mps 761 mmHg 63%
    23:00 +18°C° 0 mm 2 mps 761 mmHg 63%

    Tomorrow, 19 August, Sunday

    Time Temperature Precipitation Wind Pressure Humidity
    00:00 +18°C° 0 mm 2 mps 761 mmHg 64%
    01:00 +17°C° 0 mm 3 mps 761 mmHg 64%
    02:00 +17°C° 0 mm 3 mps 761 mmHg 66%
    03:00 +17°C° 0 mm 3 mps 761 mmHg 68%
    04:00 +17°C° 0 mm 3 mps 761 mmHg 69%
    05:00 +17°C° 0 mm 3 mps 761 mmHg 69%
    06:00 +18°C° 0 mm 3 mps 761 mmHg 70%
    07:00 +19°C° 0 mm 3 mps 761 mmHg 70%
    08:00 +20°C° 0 mm 3 mps 761 mmHg 67%
    09:00 +22°C° 0 mm 3 mps 761 mmHg 63%
    10:00 +23°C° 0 mm 4 mps 761 mmHg 60%
    11:00 +25°C° 0 mm 4 mps 761 mmHg 59%
    12:00 +25°C° 0 mm 3 mps 761 mmHg 57%
    13:00 +26°C° 0 mm 3 mps 761 mmHg 56%
    14:00 +26°C° 0 mm 3 mps 760 mmHg 56%
    15:00 +26°C° 0 mm 3 mps 760 mmHg 56%
    16:00 +26°C° 0 mm 2 mps 760 mmHg 56%
    17:00 +25°C° 0 mm 2 mps 760 mmHg 61%
    18:00 +24°C° 0 mm 1 mps 760 mmHg 66%
    19:00 +23°C° 0 mm 1 mps 759 mmHg 70%
    20:00 +22°C° 0 mm 1 mps 759 mmHg 71%
    21:00 +21°C° 0 mm 1 mps 760 mmHg 73%
    22:00 +21°C° 0 mm 1 mps 760 mmHg 74%
    23:00 +20°C° 0 mm 2 mps 759 mmHg 74%

    Day after tomorrow, 20 August, Monday

    Time Temperature Precipitation Wind Pressure Humidity
    00:00 +20°C° 0 mm 2 mps 759 mmHg 74%
    01:00 +20°C° 0 mm 2 mps 759 mmHg 75%
    02:00 +20°C° 0 mm 2 mps 759 mmHg 75%
    03:00 +20°C° 0 mm 2 mps 758 mmHg 75%
    04:00 +19°C° 0 mm 2 mps 758 mmHg 75%
    05:00 +20°C° 0 mm 2 mps 758 mmHg 75%
    06:00 +20°C° 0 mm 2 mps 758 mmHg 75%
    07:00 +20°C° 0 mm 2 mps 758 mmHg 75%
    08:00 +21°C° 0 mm 3 mps 758 mmHg 70%
    09:00 +22°C° 0 mm 3 mps 758 mmHg 66%
    10:00 +25°C° 0 mm 3 mps 758 mmHg 61%
    11:00 +25°C° 0 mm 3 mps 758 mmHg 59%
    12:00 +26°C° 0 mm 3 mps 757 mmHg 57%
    13:00 +27°C° 0 mm 4 mps 757 mmHg 55%
    14:00 +26°C° 0 mm 3 mps 757 mmHg 58%
    15:00 +26°C° 0 mm 3 mps 757 mmHg 61%
    16:00 +25°C° 0 mm 3 mps 756 mmHg 64%
    17:00 +24°C° 0.2 mm 3 mps 756 mmHg 70%
    18:00 +22°C° 0.2 mm 3 mps 756 mmHg 77%
    19:00 +21°C° 0.2 mm 3 mps 756 mmHg 83%
    20:00 +20°C° 0 mm 3 mps 756 mmHg 86%
    21:00 +19°C° 0 mm 3 mps 757 mmHg 89%
    22:00 +19°C° 0 mm 3 mps 757 mmHg 93%
    23:00 +18°C° 0 mm 3 mps 757 mmHg 92%

    21 August, Tuesday

    Time Temperature Precipitation Wind Pressure Humidity
    00:00 +18°C° 0 mm 3 mps 757 mmHg 92%
    01:00 +18°C° 0 mm 4 mps 757 mmHg 92%
    02:00 +17°C° 0 mm 3 mps 757 mmHg 91%
    03:00 +17°C° 0 mm 3 mps 758 mmHg 90%
    04:00 +16°C° 0 mm 3 mps 758 mmHg 89%
    05:00 +17°C° 0 mm 4 mps 758 mmHg 85%
    06:00 +17°C° 0 mm 4 mps 759 mmHg 81%
    07:00 +18°C° 0 mm 4 mps 759 mmHg 77%
    08:00 +19°C° 0 mm 4 mps 759 mmHg 72%
    09:00 +20°C° 0 mm 4 mps 760 mmHg 67%
    10:00 +21°C° 0 mm 4 mps 760 mmHg 61%
    11:00 +22°C° 0 mm 4 mps 760 mmHg 60%
    12:00 +22°C° 0 mm 4 mps 760 mmHg 59%
    13:00 +24°C° 0 mm 3 mps 760 mmHg 58%
    14:00 +24°C° 0 mm 3 mps 760 mmHg 60%
    15:00 +24°C° 0 mm 3 mps 760 mmHg 62%
    16:00 +23°C° 0 mm 2 mps 760 mmHg 64%
    17:00 +23°C° 0 mm 2 mps 760 mmHg 68%
    18:00 +22°C° 0 mm 1 mps 760 mmHg 72%
    19:00 +21°C° 0 mm 1 mps 760 mmHg 77%
    20:00 +20°C° 0 mm 1 mps 760 mmHg 79%
    21:00 +19°C° 0 mm 2 mps 760 mmHg 81%
    22:00 +18°C° 0 mm 2 mps 760 mmHg 83%
    23:00 +18°C° 0 mm 2 mps 760 mmHg 83%

    22 August, Wednesday

    Time Temperature Precipitation Wind Pressure Humidity
    00:00 +18°C° 0 mm 2 mps 760 mmHg 83%
    01:00 +18°C° 0 mm 3 mps 760 mmHg 83%
    02:00 +18°C° 0.1 mm 3 mps 760 mmHg 82%
    03:00 +18°C° 0.1 mm 3 mps 760 mmHg 81%
    04:00 +18°C° 0.1 mm 3 mps 759 mmHg 81%
    05:00 +19°C° 0 mm 3 mps 759 mmHg 80%
    06:00 +19°C° 0 mm 3 mps 759 mmHg 79%
    07:00 +20°C° 0 mm 4 mps 759 mmHg 78%
    08:00 +21°C° 0 mm 4 mps 759 mmHg 75%
    09:00 +22°C° 0 mm 4 mps 759 mmHg 72%
    10:00 +25°C° 0 mm 4 mps 759 mmHg 69%
    11:00 +25°C° 0.1 mm 4 mps 759 mmHg 66%
    12:00 +26°C° 0.1 mm 4 mps 759 mmHg 63%
    13:00 +26°C° 0.1 mm 4 mps 759 mmHg 60%
    14:00 +26°C° 0 mm 4 mps 759 mmHg 59%
    15:00 +26°C° 0 mm 3 mps 759 mmHg 58%
    16:00 +26°C° 0 mm 3 mps 759 mmHg 57%
    17:00 +25°C° 0 mm 3 mps 759 mmHg 63%
    18:00 +23°C° 0 mm 2 mps 759 mmHg 69%
    19:00 +21°C° 0 mm 2 mps 759 mmHg 75%
    20:00 +20°C° 0 mm 2 mps 759 mmHg 77%
    21:00 +21°C° 0 mm 1 mps 759 mmHg 80%
    22:00 +20°C° 0 mm 1 mps 759 mmHg 82%
    23:00 +20°C° 0 mm 1 mps 759 mmHg 83%

    23 August, Thursday

    Time Temperature Precipitation Wind Pressure Humidity
    00:00 +19°C° 0 mm 1 mps 759 mmHg 84%
    01:00 +19°C° 0 mm 1 mps 759 mmHg 85%
    02:00 +19°C° 0 mm 1 mps 759 mmHg 86%
    03:00 +19°C° 0 mm 1 mps 759 mmHg 86%
    04:00 +19°C° 0 mm 1 mps 759 mmHg 87%
    05:00 +20°C° 0 mm 1 mps 759 mmHg 84%
    06:00 +20°C° 0 mm 1 mps 759 mmHg 81%
    07:00 +21°C° 0 mm 1 mps 759 mmHg 77%
    08:00 +23°C° 0 mm 1 mps 759 mmHg 72%
    09:00 +24°C° 0 mm 2 mps 759 mmHg 66%
    10:00 +26°C° 0 mm 2 mps 759 mmHg 61%
    11:00 +27°C° 0 mm 2 mps 759 mmHg 57%
    12:00 +28°C° 0 mm 2 mps 758 mmHg 54%
    13:00 +29°C° 0 mm 2 mps 758 mmHg 50%
    14:00 +29°C° 0 mm 2 mps 757 mmHg 50%
    15:00 +29°C° 0 mm 2 mps 757 mmHg 49%
    16:00 +29°C° 0 mm 2 mps 756 mmHg 49%
    17:00 +28°C° 0 mm 2 mps 756 mmHg 53%
    18:00 +27°C° 0 mm 2 mps 756 mmHg 56%
    19:00 +25°C° 0 mm 3 mps 755 mmHg 60%
    20:00 +25°C° 0 mm 3 mps 755 mmHg 61%
    21:00 +24°C° 0 mm 3 mps 755 mmHg 62%
    22:00 +23°C° 0 mm 4 mps 754 mmHg 63%
    23:00 +23°C° 0 mm 4 mps 754 mmHg 62%
    Show more